{"data":{"norad_id":48361,"epoch":"2026-09-19T07:32:40.004160Z","epoch_age_seconds":136163,"freshness":"FRESH","line1":"1 48361U 21038J   26262.31435190  .00000100  00000+0  15003-4 0  9993","line2":"2 48361  53.1586 177.0518 0001133 105.8574 254.2553 15.31696333296743","mean_motion":15.31696333,"eccentricity":0.0001133,"inclination_deg":53.1586,"raan_deg":177.0518,"arg_perigee_deg":105.8574,"mean_anomaly_deg":254.2553,"bstar":1.5003e-5,"rev_number":29674,"period_min":94.013413035964,"perigee_km":469.97494738158,"apogee_km":471.5269053857,"semimajor_km":6848.8879263836,"source":"CELESTRAK","updated_at":"2026-09-20T09:00:38.940494Z"}}